STARLINK-1526 (46029 NORAD) Tracking and Keplerian Element Data

This shows tracking and keplerian element data for the satellite.

Feedback or suggestion? Click here.




ElementValue
Catalog46029
NameSTARLINK-1526
Epoch Orbit1875
Epoch Day339.09155467
Epoch Year2020
RAAN112.9648
Inclination53.0092
Eccentricity0.0001985
Argument of Perigee101.8408
Mean Anonmoly258.2802
Mean Motion15.05579681
Decay Rate1.557E-05
L11 46029U 20055C 20339.09155467 .00001557 00000-0 12604-3 0 9991
L22 46029 53.0092 112.9648 0001985 101.8408 258.2802 15.05579681 18753

Live tracking and technical data element details for STARLINK-1526 (NORAD 46029). STARLINK-1526 can be tracked NOW for your location showing map with azimuth and elevation plus other details from your city location.

Track the satellite on the map from your city or location and see movement details for azimuth, elevation, latitude, longitude, range, height, and movement on the map or in text.







IsCatalogInMostPopularTable: catalog: 46029, numindb: 30
Update: records affected: 1



GetName: 46029 STARLINK-1526

Hit Count: updated at: Sun, 06 Dec 2020 01:01:02 GMT